Hourly Weather Holoblin

Today, 13 April, Tuesday

Time Temperature Precipitation Wind Pressure Humidity
00:00 +11°C° 0 mm 1 mps 751 mmHg 90%
01:00 +10°C° 0 mm 1 mps 751 mmHg 90%
02:00 +9°C° 0 mm 0 mps 751 mmHg 91%
03:00 +10°C° 0 mm 1 mps 751 mmHg 91%
04:00 +10°C° 0 mm 1 mps 750 mmHg 92%
05:00 +10°C° 0 mm 1 mps 750 mmHg 92%
06:00 +10°C° 0 mm 2 mps 750 mmHg 89%
07:00 +12°C° 0 mm 2 mps 750 mmHg 86%
08:00 +13°C° 0 mm 2 mps 750 mmHg 81%
09:00 +13°C° 0 mm 3 mps 750 mmHg 78%
10:00 +14°C° 0 mm 3 mps 750 mmHg 74%
11:00 +15°C° 0 mm 4 mps 750 mmHg 70%
12:00 +14°C° 0 mm 4 mps 750 mmHg 73%
13:00 +14°C° 0 mm 4 mps 750 mmHg 76%
14:00 +13°C° 0 mm 3 mps 750 mmHg 77%
15:00 +13°C° 0.1 mm 3 mps 750 mmHg 80%
16:00 +12°C° 0.1 mm 3 mps 749 mmHg 83%
17:00 +13°C° 0.1 mm 2 mps 749 mmHg 87%
18:00 +12°C° 0.2 mm 2 mps 749 mmHg 88%
19:00 +12°C° 0.2 mm 2 mps 749 mmHg 90%
20:00 +12°C° 0.2 mm 1 mps 749 mmHg 92%
21:00 +11°C° 0 mm 1 mps 749 mmHg 92%
22:00 +11°C° 0 mm 1 mps 748 mmHg 92%
23:00 +11°C° 0 mm 1 mps 748 mmHg 91%

Tomorrow, 14 April, Wednesday

Time Temperature Precipitation Wind Pressure Humidity
00:00 +11°C° 0 mm 1 mps 748 mmHg 92%
01:00 +10°C° 0 mm 2 mps 748 mmHg 92%
02:00 +9°C° 0 mm 2 mps 748 mmHg 92%
03:00 +9°C° 0 mm 2 mps 748 mmHg 93%
04:00 +9°C° 0 mm 2 mps 748 mmHg 93%
05:00 +9°C° 0 mm 2 mps 747 mmHg 93%
06:00 +9°C° 0 mm 2 mps 748 mmHg 90%
07:00 +10°C° 0 mm 3 mps 748 mmHg 87%
08:00 +10°C° 0 mm 3 mps 748 mmHg 84%
09:00 +11°C° 0 mm 3 mps 748 mmHg 80%
10:00 +11°C° 0 mm 3 mps 748 mmHg 76%
11:00 +12°C° 0 mm 3 mps 748 mmHg 72%
12:00 +13°C° 0.1 mm 4 mps 748 mmHg 67%
13:00 +13°C° 0.1 mm 4 mps 747 mmHg 62%
14:00 +14°C° 0.1 mm 4 mps 747 mmHg 57%
15:00 +14°C° 0 mm 3 mps 747 mmHg 59%
16:00 +14°C° 0 mm 3 mps 747 mmHg 60%
17:00 +15°C° 0 mm 2 mps 747 mmHg 61%
18:00 +14°C° 0 mm 2 mps 747 mmHg 66%
19:00 +12°C° 0 mm 1 mps 747 mmHg 70%
20:00 +11°C° 0 mm 1 mps 747 mmHg 74%
21:00 +11°C° 0 mm 1 mps 747 mmHg 75%
22:00 +11°C° 0 mm 1 mps 747 mmHg 77%
23:00 +10°C° 0 mm 1 mps 747 mmHg 78%

Day after tomorrow, 15 April, Thursday

Time Temperature Precipitation Wind Pressure Humidity
00:00 +9°C° 0 mm 2 mps 746 mmHg 87%
01:00 +9°C° 0 mm 2 mps 746 mmHg 88%
02:00 +10°C° 0 mm 1 mps 746 mmHg 88%
03:00 +10°C° 0.2 mm 1 mps 746 mmHg 90%
04:00 +8°C° 0.2 mm 2 mps 746 mmHg 91%
05:00 +8°C° 0.2 mm 2 mps 746 mmHg 93%
06:00 +11°C° 0.1 mm 1 mps 746 mmHg 85%
07:00 +11°C° 0.1 mm 1 mps 746 mmHg 83%
08:00 +12°C° 0.1 mm 1 mps 746 mmHg 81%
09:00 +13°C° 0.2 mm 1 mps 746 mmHg 76%
10:00 +14°C° 0.2 mm 1 mps 746 mmHg 71%
11:00 +15°C° 0.2 mm 1 mps 746 mmHg 66%
12:00 +9°C° 0.2 mm 3 mps 746 mmHg 88%
13:00 +10°C° 0.2 mm 4 mps 745 mmHg 83%
14:00 +12°C° 0.2 mm 5 mps 745 mmHg 78%
15:00 +10°C° 0.3 mm 5 mps 745 mmHg 82%
16:00 +10°C° 0.3 mm 4 mps 745 mmHg 86%
17:00 +10°C° 0.3 mm 4 mps 745 mmHg 89%
18:00 +9°C° 0.2 mm 3 mps 745 mmHg 90%
19:00 +9°C° 0.2 mm 3 mps 745 mmHg 90%
20:00 +9°C° 0.2 mm 3 mps 745 mmHg 91%
21:00 +9°C° 0.5 mm 3 mps 745 mmHg 92%
22:00 +9°C° 0.5 mm 3 mps 745 mmHg 93%
23:00 +9°C° 0.5 mm 3 mps 745 mmHg 95%

16 April, Friday

Time Temperature Precipitation Wind Pressure Humidity
00:00 +8°C° 0.2 mm 4 mps 745 mmHg 95%
01:00 +7°C° 0.2 mm 4 mps 745 mmHg 94%
02:00 +7°C° 0.2 mm 4 mps 745 mmHg 94%
03:00 +7°C° 0.2 mm 4 mps 745 mmHg 94%
04:00 +7°C° 0.2 mm 4 mps 745 mmHg 94%
05:00 +7°C° 0.2 mm 5 mps 745 mmHg 94%
06:00 +7°C° 0.1 mm 5 mps 745 mmHg 92%
07:00 +8°C° 0.1 mm 5 mps 745 mmHg 90%
08:00 +8°C° 0.1 mm 5 mps 745 mmHg 88%
09:00 +8°C° 1.3 mm 5 mps 746 mmHg 89%
10:00 +8°C° 1.3 mm 5 mps 746 mmHg 90%
11:00 +8°C° 1.3 mm 4 mps 746 mmHg 90%
12:00 +10°C° 0.2 mm 4 mps 746 mmHg 84%
13:00 +10°C° 0.2 mm 5 mps 746 mmHg 77%
14:00 +12°C° 0.2 mm 5 mps 746 mmHg 71%
15:00 +12°C° 0.3 mm 5 mps 746 mmHg 71%
16:00 +12°C° 0.3 mm 4 mps 746 mmHg 72%
17:00 +12°C° 0.3 mm 4 mps 746 mmHg 73%
18:00 +11°C° 0.3 mm 4 mps 747 mmHg 78%
19:00 +10°C° 0.3 mm 3 mps 747 mmHg 83%
20:00 +9°C° 0.3 mm 2 mps 747 mmHg 87%
21:00 +8°C° 0.1 mm 2 mps 747 mmHg 89%
22:00 +8°C° 0.1 mm 2 mps 748 mmHg 90%
23:00 +7°C° 0.1 mm 2 mps 748 mmHg 92%

17 April, Saturday

Time Temperature Precipitation Wind Pressure Humidity
00:00 +7°C° 0 mm 2 mps 748 mmHg 92%
01:00 +7°C° 0 mm 2 mps 748 mmHg 92%
02:00 +6°C° 0 mm 2 mps 748 mmHg 92%
03:00 +6°C° 0 mm 2 mps 749 mmHg 92%
04:00 +7°C° 0 mm 1 mps 749 mmHg 91%
05:00 +7°C° 0 mm 1 mps 749 mmHg 91%
06:00 +8°C° 0 mm 1 mps 750 mmHg 89%
07:00 +7°C° 0 mm 2 mps 750 mmHg 86%
08:00 +8°C° 0 mm 2 mps 751 mmHg 84%
09:00 +9°C° 0 mm 3 mps 751 mmHg 76%
10:00 +11°C° 0 mm 3 mps 751 mmHg 69%
11:00 +12°C° 0 mm 4 mps 751 mmHg 61%
12:00 +12°C° 0.1 mm 3 mps 751 mmHg 66%
13:00 +11°C° 0.1 mm 3 mps 752 mmHg 72%
14:00 +10°C° 0.1 mm 3 mps 752 mmHg 77%
15:00 +10°C° 0.6 mm 3 mps 752 mmHg 81%
16:00 +9°C° 0.6 mm 3 mps 752 mmHg 86%
17:00 +8°C° 0.6 mm 2 mps 752 mmHg 91%
18:00 +8°C° 1.5 mm 2 mps 752 mmHg 92%
19:00 +9°C° 1.5 mm 1 mps 752 mmHg 93%
20:00 +9°C° 1.5 mm 1 mps 752 mmHg 94%
21:00 +9°C° 0.1 mm 1 mps 752 mmHg 94%
22:00 +8°C° 0.1 mm 2 mps 752 mmHg 93%
23:00 +7°C° 0.1 mm 2 mps 753 mmHg 93%

18 April, Sunday

Time Temperature Precipitation Wind Pressure Humidity
00:00 +7°C° 0.2 mm 2 mps 753 mmHg 93%
01:00 +8°C° 0.2 mm 1 mps 753 mmHg 93%
02:00 +8°C° 0.2 mm 1 mps 753 mmHg 93%
03:00 +7°C° 0 mm 1 mps 753 mmHg 92%
04:00 +7°C° 0 mm 1 mps 753 mmHg 92%
05:00 +7°C° 0 mm 1 mps 754 mmHg 91%
06:00 +8°C° 0 mm 1 mps 754 mmHg 87%
07:00 +8°C° 0 mm 1 mps 754 mmHg 82%
08:00 +9°C° 0 mm 1 mps 754 mmHg 78%
09:00 +9°C° 0 mm 2 mps 754 mmHg 75%
10:00 +10°C° 0 mm 2 mps 755 mmHg 73%
11:00 +10°C° 0 mm 2 mps 755 mmHg 70%
12:00 +11°C° 0 mm 3 mps 755 mmHg 70%
13:00 +12°C° 0 mm 3 mps 754 mmHg 69%
14:00 +12°C° 0 mm 4 mps 754 mmHg 69%
15:00 +12°C° 0.1 mm 3 mps 754 mmHg 71%
16:00 +12°C° 0.1 mm 3 mps 754 mmHg 73%
17:00 +12°C° 0.1 mm 3 mps 754 mmHg 75%
18:00 +11°C° 0.1 mm 3 mps 754 mmHg 79%
19:00 +10°C° 0.1 mm 3 mps 754 mmHg 84%
20:00 +10°C° 0.1 mm 3 mps 754 mmHg 88%
21:00 +8°C° 0.1 mm 4 mps 754 mmHg 89%
22:00 +8°C° 0.1 mm 4 mps 755 mmHg 89%
23:00 +8°C° 0.1 mm 4 mps 755 mmHg 89%
Show more